| time (UTC) | temp C | wind direction | speed KPH | gust KPH | rain 1hr cm | rain 24hr cm | rain mn cm | humidity % | barometer mb |
| 20260905061055 | 27 | 0 | 0.0 | 3.2 | 0.00 | 0.38 | 0.00 | 73 | 1013.4 |
| 20260905060553 | 27 | 0 | 0.0 | 3.2 | 0.00 | 0.38 | 0.00 | 72 | 1013.5 |
| 20260905060108 | 27 | 79 | 0.0 | 3.2 | 0.00 | 0.38 | 0.00 | 71 | 1013.4 |
| 20260905055558 | 27 | 0 | 0.0 | 3.2 | 0.00 | 0.38 | 0.00 | 71 | 1013.5 |
| 20260905055058 | 27 | 0 | 0.0 | 4.8 | 0.00 | 0.38 | 0.00 | 71 | 1013.5 |
| 20260905054620 | 27 | 0 | 0.0 | 4.8 | 0.00 | 0.38 | 0.00 | 71 | 1013.4 |
| 20260905054054 | 27 | 0 | 0.0 | 3.2 | 0.00 | 0.38 | 0.00 | 70 | 1013.4 |
| 20260905053556 | 27 | 0 | 0.0 | 3.2 | 0.00 | 0.38 | 0.00 | 70 | 1013.4 |
| 20260905053117 | 27 | 0 | 0.0 | 3.2 | 0.00 | 0.38 | 0.00 | 70 | 1013.3 |
| 20260905052556 | 27 | 0 | 0.0 | 3.2 | 0.00 | 0.38 | 0.00 | 69 | 1013.3 |
| 20260905052054 | 27 | 0 | 0.0 | 4.8 | 0.00 | 0.38 | 0.00 | 69 | 1013.3 |
| 20260905051601 | 28 | 0 | 0.0 | 6.4 | 0.00 | 0.38 | 0.00 | 69 | 1013.1 |
| 20260905051053 | 28 | 193 | 0.0 | 6.4 | 0.00 | 0.38 | 0.00 | 68 | 1013.1 |
| 20260905050557 | 28 | 0 | 0.0 | 4.8 | 0.00 | 0.38 | 0.00 | 68 | 1013.1 |
| 20260905045553 | 28 | 0 | 0.0 | 8.0 | 0.00 | 0.38 | 0.38 | 67 | 1013.1 |
| 20260905045053 | 28 | 28 | 1.6 | 8.0 | 0.00 | 0.38 | 0.38 | 67 | 1012.9 |
| 20260905044607 | 28 | 55 | 1.6 | 8.0 | 0.00 | 0.38 | 0.38 | 67 | 1013.0 |
| 20260905044054 | 28 | 0 | 1.6 | 6.4 | 0.00 | 0.38 | 0.38 | 66 | 1013.0 |
| 20260905043554 | 28 | 84 | 1.6 | 6.4 | 0.00 | 0.38 | 0.38 | 66 | 1013.0 |
| 20260905043111 | 28 | 38 | 1.6 | 8.0 | 0.00 | 0.38 | 0.38 | 66 | 1013.0 |
| 20260905042557 | 28 | 55 | 1.6 | 8.0 | 0.00 | 0.38 | 0.38 | 65 | 1013.0 |
| 20260905042054 | 28 | 130 | 1.6 | 8.0 | 0.00 | 0.38 | 0.38 | 65 | 1013.0 |
| 20260905041602 | 29 | 0 | 1.6 | 8.0 | 0.00 | 0.38 | 0.38 | 64 | 1013.0 |
| 20260905041057 | 29 | 0 | 1.6 | 6.4 | 0.00 | 0.38 | 0.38 | 64 | 1013.1 |
| 20260905040553 | 29 | 65 | 1.6 | 6.4 | 0.00 | 0.38 | 0.38 | 64 | 1013.1 |
| 20260905040105 | 29 | 14 | 1.6 | 6.4 | 0.00 | 0.38 | 0.38 | 63 | 1013.0 |
| 20260905035554 | 29 | 49 | 1.6 | 9.7 | 0.00 | 0.38 | 0.38 | 63 | 1012.9 |
| 20260905035054 | 29 | 50 | 1.6 | 9.7 | 0.00 | 0.38 | 0.38 | 63 | 1013.1 |
| 20260905034606 | 30 | 182 | 3.2 | 9.7 | 0.00 | 0.38 | 0.38 | 62 | 1013.2 |
| 20260905034053 | 30 | 213 | 1.6 | 8.0 | 0.00 | 0.38 | 0.38 | 62 | 1013.2 |
| 20260905033553 | 30 | 169 | 1.6 | 8.0 | 0.00 | 0.38 | 0.38 | 61 | 1013.1 |
| 20260905033102 | 30 | 38 | 1.6 | 8.0 | 0.00 | 0.38 | 0.38 | 61 | 1013.2 |
| 20260905032557 | 30 | 52 | 1.6 | 8.0 | 0.00 | 0.38 | 0.38 | 60 | 1013.1 |
| 20260905032054 | 30 | 84 | 1.6 | 6.4 | 0.00 | 0.38 | 0.38 | 60 | 1013.0 |
| 20260905031604 | 30 | 137 | 1.6 | 11.3 | 0.00 | 0.38 | 0.38 | 59 | 1013.0 |
| 20260905031057 | 30 | 44 | 1.6 | 11.3 | 0.00 | 0.38 | 0.38 | 59 | 1013.0 |
| 20260905030556 | 30 | 0 | 3.2 | 8.0 | 0.00 | 0.38 | 0.38 | 58 | 1012.9 |
| 20260905030104 | 30 | 49 | 3.2 | 8.0 | 0.00 | 0.38 | 0.38 | 58 | 1012.9 |
| 20260905025556 | 30 | 180 | 1.6 | 6.4 | 0.00 | 0.38 | 0.38 | 58 | 1012.7 |
| 20260905025056 | 30 | 85 | 1.6 | 6.4 | 0.00 | 0.38 | 0.38 | 57 | 1012.7 |
| 20260905024605 | 30 | 55 | 1.6 | 6.4 | 0.00 | 0.38 | 0.38 | 57 | 1012.6 |
| 20260905024056 | 31 | 47 | 1.6 | 6.4 | 0.00 | 0.38 | 0.38 | 57 | 1012.4 |
| 20260905023556 | 31 | 42 | 1.6 | 6.4 | 0.00 | 0.38 | 0.38 | 57 | 1012.5 |
| 20260905023104 | 31 | 0 | 0.0 | 6.4 | 0.00 | 0.38 | 0.38 | 56 | 1012.3 |
| 20260905022555 | 31 | 213 | 1.6 | 11.3 | 0.00 | 0.38 | 0.38 | 56 | 1012.2 |
| 20260905022057 | 31 | 0 | 1.6 | 11.3 | 0.00 | 0.38 | 0.38 | 56 | 1012.3 |
| 20260905021603 | 31 | 31 | 0.0 | 6.4 | 0.00 | 0.38 | 0.38 | 55 | 1012.1 |
| 20260905021058 | 31 | 71 | 1.6 | 6.4 | 0.00 | 0.38 | 0.38 | 55 | 1012.1 |
| 20260905020559 | 31 | 70 | 1.6 | 6.4 | 0.00 | 0.38 | 0.38 | 55 | 1012.1 |
| 20260905020105 | 31 | 50 | 1.6 | 6.4 | 0.00 | 0.38 | 0.38 | 55 | 1011.9 |
| 20260905015556 | 31 | 102 | 1.6 | 6.4 | 0.00 | 0.38 | 0.38 | 55 | 1011.9 |
| 20260905015056 | 31 | 22 | 1.6 | 6.4 | 0.00 | 0.38 | 0.38 | 55 | 1012.0 |
| 20260905014605 | 31 | 40 | 0.0 | 4.8 | 0.00 | 0.38 | 0.38 | 55 | 1011.9 |
| 20260905014056 | 32 | 193 | 0.0 | 4.8 | 0.00 | 0.38 | 0.38 | 55 | 1011.8 |
| 20260905013555 | 32 | 46 | 0.0 | 4.8 | 0.00 | 0.38 | 0.38 | 54 | 1011.7 |
| 20260905013105 | 32 | 33 | 1.6 | 4.8 | 0.00 | 0.38 | 0.38 | 54 | 1011.7 |
| 20260905012557 | 32 | 84 | 0.0 | 4.8 | 0.00 | 0.38 | 0.38 | 54 | 1011.6 |
| 20260905012056 | 32 | 262 | 0.0 | 6.4 | 0.00 | 0.38 | 0.38 | 53 | 1011.5 |
| 20260905011620 | 32 | 0 | 0.0 | 6.4 | 0.00 | 0.38 | 0.38 | 53 | 1011.5 |
| 20260905011055 | 32 | 184 | 0.0 | 6.4 | 0.00 | 0.38 | 0.38 | 52 | 1011.3 |
| 20260905010556 | 32 | 67 | 0.0 | 4.8 | 0.00 | 0.38 | 0.38 | 52 | 1011.3 |
| 20260905010105 | 33 | 0 | 1.6 | 4.8 | 0.00 | 0.38 | 0.38 | 51 | 1011.4 |
| 20260905005556 | 33 | 84 | 1.6 | 6.4 | 0.00 | 0.38 | 0.38 | 51 | 1011.2 |
| 20260905005056 | 33 | 96 | 0.0 | 6.4 | 0.00 | 0.38 | 0.38 | 51 | 1011.1 |
| 20260905004607 | 33 | 10 | 0.0 | 4.8 | 0.00 | 0.38 | 0.38 | 50 | 1011.1 |
| 20260905004056 | 33 | 65 | 1.6 | 8.0 | 0.00 | 0.38 | 0.38 | 49 | 1011.1 |
| 20260905003556 | 33 | 0 | 0.0 | 8.0 | 0.00 | 0.38 | 0.38 | 49 | 1011.0 |
| 20260905003102 | 33 | 70 | 1.6 | 8.0 | 0.00 | 0.38 | 0.38 | 49 | 1011.0 |
| 20260905002555 | 34 | 40 | 1.6 | 9.7 | 0.00 | 0.38 | 0.38 | 49 | 1010.9 |
| 20260905002059 | 34 | 101 | 3.2 | 9.7 | 0.00 | 0.38 | 0.38 | 48 | 1010.9 |
| 20260905001612 | 34 | 69 | 3.2 | 9.7 | 0.00 | 0.38 | 0.38 | 48 | 1010.9 |
| 20260905001055 | 34 | 209 | 1.6 | 9.7 | 0.00 | 0.38 | 0.38 | 48 | 1010.7 |
| 20260905000559 | 35 | 80 | 1.6 | 9.7 | 0.00 | 0.38 | 0.38 | 48 | 1010.7 |
| 20260905000110 | 35 | 121 | 3.2 | 9.7 | 0.00 | 0.38 | 0.38 | 47 | 1010.7 |
| 20260904235556 | 35 | 88 | 1.6 | 6.4 | 0.00 | 0.38 | 0.38 | 47 | 1010.7 |
| 20260904235055 | 35 | 360 | 1.6 | 9.7 | 0.00 | 0.38 | 0.38 | 47 | 1010.7 |
| 20260904234607 | 35 | 57 | 1.6 | 9.7 | 0.00 | 0.38 | 0.38 | 46 | 1010.5 |
| 20260904234058 | 35 | 71 | 1.6 | 9.7 | 0.00 | 0.38 | 0.38 | 46 | 1010.6 |
| 20260904233559 | 35 | 92 | 1.6 | 8.0 | 0.00 | 0.38 | 0.38 | 46 | 1010.5 |
| 20260904233107 | 35 | 57 | 1.6 | 8.0 | 0.00 | 0.38 | 0.38 | 46 | 1010.6 |
| 20260904232556 | 35 | 87 | 0.0 | 6.4 | 0.00 | 0.38 | 0.38 | 45 | 1010.6 |
| 20260904232059 | 35 | 58 | 1.6 | 8.0 | 0.00 | 0.38 | 0.38 | 45 | 1010.5 |
| 20260904231607 | 36 | 229 | 1.6 | 9.7 | 0.00 | 0.38 | 0.38 | 44 | 1010.6 |
| 20260904231055 | 35 | 176 | 1.6 | 9.7 | 0.00 | 0.38 | 0.38 | 43 | 1010.6 |
| 20260904230555 | 36 | 70 | 3.2 | 8.0 | 0.00 | 0.38 | 0.38 | 43 | 1010.6 |
| 20260904230101 | 36 | 0 | 1.6 | 6.4 | 0.00 | 0.38 | 0.38 | 43 | 1010.4 |
| 20260904225556 | 36 | 306 | 1.6 | 9.7 | 0.00 | 0.38 | 0.38 | 42 | 1010.6 |
| 20260904225056 | 36 | 281 | 3.2 | 9.7 | 0.00 | 0.38 | 0.38 | 43 | 1010.6 |
| 20260904224606 | 36 | 123 | 1.6 | 9.7 | 0.00 | 0.38 | 0.38 | 43 | 1010.6 |
| 20260904224056 | 36 | 0 | 1.6 | 11.3 | 0.00 | 0.38 | 0.38 | 42 | 1010.6 |
| 20260904223556 | 36 | 236 | 1.6 | 11.3 | 0.00 | 0.38 | 0.38 | 43 | 1010.5 |
| 20260904223103 | 36 | 60 | 1.6 | 8.0 | 0.00 | 0.38 | 0.38 | 42 | 1010.5 |
| 20260904222555 | 36 | 165 | 3.2 | 8.0 | 0.00 | 0.38 | 0.38 | 43 | 1010.5 |
| 20260904222056 | 36 | 84 | 1.6 | 6.4 | 0.00 | 0.38 | 0.38 | 43 | 1010.7 |
| 20260904221605 | 36 | 62 | 1.6 | 6.4 | 0.00 | 0.38 | 0.38 | 42 | 1010.8 |
| 20260904221056 | 36 | 68 | 1.6 | 11.3 | 0.00 | 0.38 | 0.38 | 42 | 1010.7 |
| 20260904220556 | 36 | 162 | 3.2 | 11.3 | 0.00 | 0.38 | 0.38 | 42 | 1010.8 |
| 20260904220111 | 36 | 167 | 1.6 | 9.7 | 0.00 | 0.38 | 0.38 | 42 | 1010.9 |
| 20260904215555 | 37 | 68 | 1.6 | 9.7 | 0.00 | 0.38 | 0.38 | 42 | 1010.8 |
| 20260904215056 | 36 | 202 | 1.6 | 6.4 | 0.00 | 0.38 | 0.38 | 42 | 1010.9 |
| 20260904214603 | 36 | 170 | 1.6 | 8.0 | 0.00 | 0.38 | 0.38 | 43 | 1010.9 |
| 20260904214057 | 36 | 0 | 1.6 | 9.7 | 0.00 | 0.38 | 0.38 | 43 | 1010.9 |
| 20260904213556 | 36 | 94 | 1.6 | 9.7 | 0.00 | 0.38 | 0.38 | 41 | 1011.1 |
| 20260904213104 | 36 | 100 | 1.6 | 6.4 | 0.00 | 0.38 | 0.38 | 43 | 1011.2 |
| 20260904212558 | 36 | 107 | 1.6 | 8.0 | 0.00 | 0.38 | 0.38 | 45 | 1011.3 |
| 20260904212056 | 36 | 82 | 1.6 | 12.9 | 0.00 | 0.38 | 0.38 | 45 | 1011.3 |
| 20260904211606 | 37 | 69 | 3.2 | 12.9 | 0.00 | 0.38 | 0.38 | 44 | 1011.4 |
| 20260904211055 | 37 | 231 | 1.6 | 8.0 | 0.00 | 0.38 | 0.38 | 44 | 1011.5 |
| 20260904210555 | 36 | 217 | 1.6 | 8.0 | 0.00 | 0.38 | 0.38 | 46 | 1011.4 |
| 20260904210104 | 35 | 202 | 0.0 | 12.9 | 0.00 | 0.38 | 0.38 | 48 | 1011.4 |
| 20260904205558 | 36 | 52 | 3.2 | 12.9 | 0.00 | 0.38 | 0.38 | 46 | 1011.7 |
| 20260904205056 | 36 | 71 | 1.6 | 11.3 | 0.00 | 0.38 | 0.38 | 46 | 1011.4 |
| 20260904204620 | 36 | 145 | 1.6 | 11.3 | 0.00 | 0.38 | 0.38 | 48 | 1011.6 |
| 20260904204056 | 36 | 0 | 3.2 | 11.3 | 0.00 | 0.38 | 0.38 | 45 | 1011.6 |
| 20260904203556 | 37 | 352 | 0.0 | 9.7 | 0.00 | 0.38 | 0.38 | 47 | 1011.6 |
| 20260904203108 | 36 | 89 | 1.6 | 9.7 | 0.00 | 0.38 | 0.38 | 46 | 1011.8 |
| 20260904202555 | 36 | 73 | 1.6 | 9.7 | 0.00 | 0.38 | 0.38 | 47 | 1011.9 |
| 20260904202055 | 36 | 10 | 0.0 | 9.7 | 0.00 | 0.38 | 0.38 | 49 | 1011.9 |
| 20260904201632 | 36 | 352 | 3.2 | 9.7 | 0.00 | 0.38 | 0.38 | 47 | 1012.0 |
| 20260904201055 | 36 | 209 | 3.2 | 12.9 | 0.00 | 0.38 | 0.38 | 47 | 1012.1 |
| 20260904200555 | 36 | 201 | 1.6 | 12.9 | 0.00 | 0.38 | 0.38 | 48 | 1012.2 |
| 20260904200110 | 36 | 46 | 3.2 | 12.9 | 0.00 | 0.38 | 0.38 | 49 | 1012.3 |
| 20260904195555 | 36 | 0 | 3.2 | 12.9 | 0.00 | 0.38 | 0.38 | 50 | 1012.4 |
| 20260904195102 | 36 | 246 | 3.2 | 9.7 | 0.00 | 0.38 | 0.38 | 49 | 1012.5 |
| 20260904194605 | 36 | 53 | 3.2 | 8.0 | 0.00 | 0.38 | 0.38 | 48 | 1012.6 |
| 20260904194056 | 37 | 96 | 0.0 | 8.0 | 0.00 | 0.38 | 0.38 | 47 | 1012.4 |
| 20260904193556 | 36 | 146 | 1.6 | 12.9 | 0.00 | 0.38 | 0.38 | 49 | 1012.6 |
| 20260904193111 | 37 | 61 | 1.6 | 12.9 | 0.00 | 0.38 | 0.38 | 47 | 1012.7 |
| 20260904192555 | 36 | 83 | 3.2 | 12.9 | 0.00 | 0.38 | 0.38 | 51 | 1012.7 |
| 20260904192100 | 36 | 254 | 1.6 | 8.0 | 0.00 | 0.38 | 0.38 | 49 | 1012.7 |
| 20260904191602 | 36 | 64 | 1.6 | 8.0 | 0.00 | 0.38 | 0.38 | 50 | 1012.8 |
| 20260904191055 | 36 | 179 | 1.6 | 6.4 | 0.00 | 0.38 | 0.38 | 51 | 1012.9 |
| 20260904190557 | 35 | 46 | 1.6 | 8.0 | 0.00 | 0.38 | 0.38 | 49 | 1013.1 |
| 20260904185555 | 35 | 34 | 3.2 | 8.0 | 0.00 | 0.38 | 0.38 | 49 | 1013.3 |
| 20260904185057 | 35 | 86 | 1.6 | 6.4 | 0.00 | 0.38 | 0.38 | 50 | 1013.3 |
| 20260904184605 | 34 | 40 | 1.6 | 6.4 | 0.00 | 0.38 | 0.38 | 51 | 1013.2 |
| 20260904184056 | 33 | 217 | 1.6 | 6.4 | 0.00 | 0.38 | 0.38 | 52 | 1013.6 |
| 20260904183556 | 33 | 162 | 1.6 | 6.4 | 0.00 | 0.38 | 0.38 | 52 | 1013.6 |
| 20260904183118 | 33 | 76 | 1.6 | 4.8 | 0.00 | 0.38 | 0.38 | 55 | 1013.6 |
| 20260904182555 | 33 | 52 | 0.0 | 3.2 | 0.00 | 0.38 | 0.38 | 55 | 1013.6 |
| 20260904182054 | 33 | 96 | 1.6 | 3.2 | 0.00 | 0.38 | 0.38 | 58 | 1013.7 |
| 20260904181610 | 32 | 80 | 0.0 | 3.2 | 0.00 | 0.38 | 0.38 | 59 | 1013.7 |
| 20260904181100 | 32 | 0 | 0.0 | 4.8 | 0.00 | 0.38 | 0.38 | 60 | 1013.7 |
| 20260904180555 | 32 | 75 | 0.0 | 6.4 | 0.00 | 0.38 | 0.38 | 58 | 1013.8 |
| 20260904180118 | 32 | 21 | 0.0 | 6.4 | 0.00 | 0.38 | 0.38 | 59 | 1013.8 |
| 20260904175555 | 32 | 0 | 1.6 | 6.4 | 0.00 | 0.38 | 0.38 | 57 | 1014.1 |
| 20260904175055 | 32 | 0 | 0.0 | 3.2 | 0.00 | 0.38 | 0.38 | 59 | 1014.2 |
| 20260904174611 | 32 | 119 | 0.0 | 8.0 | 0.00 | 0.38 | 0.38 | 58 | 1014.1 |
| 20260904174054 | 32 | 0 | 1.6 | 8.0 | 0.00 | 0.38 | 0.38 | 59 | 1014.3 |
| 20260904173554 | 32 | 86 | 1.6 | 4.8 | 0.00 | 0.38 | 0.38 | 57 | 1014.4 |
| 20260904173125 | 32 | 46 | 0.0 | 4.8 | 0.00 | 0.38 | 0.38 | 59 | 1014.5 |
| 20260904172555 | 32 | 46 | 0.0 | 4.8 | 0.00 | 0.38 | 0.38 | 60 | 1014.5 |
| 20260904172055 | 32 | 90 | 1.6 | 4.8 | 0.00 | 0.38 | 0.38 | 64 | 1014.4 |
| 20260904171608 | 31 | 42 | 0.0 | 4.8 | 0.00 | 0.38 | 0.38 | 70 | 1014.6 |
| 20260904171056 | 31 | 37 | 0.0 | 6.4 | 0.00 | 0.38 | 0.38 | 70 | 1014.6 |
| 20260904170559 | 30 | 0 | 0.0 | 6.4 | 0.00 | 0.38 | 0.38 | 75 | 1014.7 |
| 20260904170110 | 29 | 53 | 0.0 | 6.4 | 0.10 | 0.38 | 0.38 | 78 | 1014.7 |
| 20260904165555 | 29 | 82 | 1.6 | 6.4 | 0.13 | 0.38 | 0.38 | 79 | 1014.9 |
| 20260904165056 | 29 | 0 | 1.6 | 6.4 | 0.28 | 0.38 | 0.38 | 82 | 1014.8 |
| 20260904164615 | 28 | 0 | 0.0 | 3.2 | 0.30 | 0.38 | 0.38 | 87 | 1014.6 |
| 20260904164055 | 27 | 0 | 0.0 | 3.2 | 0.33 | 0.38 | 0.38 | 87 | 1014.8 |
| 20260904163552 | 27 | 0 | 0.0 | 3.2 | 0.36 | 0.38 | 0.38 | 91 | 1014.8 |
| 20260904163110 | 26 | 0 | 0.0 | 3.2 | 0.38 | 0.38 | 0.38 | 93 | 1014.8 |
| 20260904162556 | 25 | 43 | 0.0 | 3.2 | 0.38 | 0.38 | 0.38 | 91 | 1015.0 |
| 20260904162055 | 25 | 0 | 0.0 | 1.6 | 0.38 | 0.38 | 0.38 | 93 | 1014.9 |
| 20260904161619 | 25 | 0 | 0.0 | 1.6 | 0.38 | 0.38 | 0.38 | 92 | 1015.0 |
| 20260904161055 | 25 | 0 | 0.0 | 1.6 | 0.38 | 0.38 | 0.38 | 92 | 1014.9 |
| 20260904160557 | 25 | 0 | 0.0 | 1.6 | 0.36 | 0.36 | 0.36 | 91 | 1015.0 |
| 20260904160112 | 25 | 0 | 0.0 | 1.6 | 0.28 | 0.28 | 0.28 | 91 | 1015.1 |
| 20260904155556 | 25 | 0 | 0.0 | 1.6 | 0.25 | 0.25 | 0.25 | 90 | 1015.1 |
| 20260904155056 | 25 | 0 | 0.0 | 4.8 | 0.10 | 0.10 | 0.10 | 89 | 1014.9 |
| 20260904154612 | 25 | 0 | 0.0 | 4.8 | 0.08 | 0.08 | 0.08 | 88 | 1015.0 |
| 20260904154056 | 25 | 246 | 0.0 | 4.8 | 0.05 | 0.05 | 0.05 | 86 | 1015.0 |
| 20260904153556 | 26 | 0 | 0.0 | 12.9 | 0.03 | 0.03 | 0.03 | 84 | 1015.0 |
| 20260904153126 | 26 | 0 | 1.6 | 12.9 | 0.00 | 0.00 | 0.00 | 81 | 1014.9 |
| 20260904152555 | 27 | 0 | 0.0 | 6.4 | 0.00 | 0.00 | 0.00 | 80 | 1014.6 |
| 20260904152055 | 26 | 133 | 1.6 | 4.8 | 0.00 | 0.00 | 0.00 | 80 | 1014.8 |
| 20260904151625 | 26 | 217 | 1.6 | 6.4 | 0.00 | 0.00 | 0.00 | 80 | 1014.7 |
| 20260904151055 | 26 | 61 | 1.6 | 6.4 | 0.00 | 0.00 | 0.00 | 80 | 1014.6 |
| 20260904150556 | 26 | 302 | 0.0 | 4.8 | 0.00 | 0.00 | 0.00 | 83 | 1014.6 |
| 20260904150105 | 26 | 0 | 0.0 | 4.8 | 0.00 | 0.00 | 0.00 | 85 | 1014.7 |
| 20260904145556 | 26 | 0 | 1.6 | 4.8 | 0.00 | 0.00 | 0.00 | 85 | 1014.6 |
| 20260904145055 | 26 | 50 | 0.0 | 4.8 | 0.00 | 0.00 | 0.00 | 86 | 1014.6 |
| 20260904144622 | 26 | 201 | 1.6 | 4.8 | 0.00 | 0.00 | 0.00 | 86 | 1014.7 |
| 20260904144056 | 26 | 138 | 0.0 | 8.0 | 0.00 | 0.00 | 0.00 | 86 | 1014.6 |
| 20260904143556 | 26 | 65 | 0.0 | 8.0 | 0.00 | 0.00 | 0.00 | 87 | 1014.4 |
| 20260904143107 | 26 | 0 | 1.6 | 4.8 | 0.00 | 0.00 | 0.00 | 87 | 1014.5 |
| 20260904142557 | 26 | 0 | 0.0 | 3.2 | 0.00 | 0.00 | 0.00 | 88 | 1014.5 |
| 20260904142055 | 26 | 0 | 0.0 | 3.2 | 0.00 | 0.00 | 0.00 | 88 | 1014.5 |
| 20260904141606 | 26 | 64 | 0.0 | 3.2 | 0.00 | 0.00 | 0.00 | 88 | 1014.5 |
| 20260904141056 | 26 | 0 | 0.0 | 4.8 | 0.00 | 0.00 | 0.00 | 88 | 1014.7 |
| 20260904140556 | 26 | 140 | 0.0 | 4.8 | 0.00 | 0.00 | 0.00 | 88 | 1014.7 |
| 20260904140106 | 26 | 213 | 0.0 | 3.2 | 0.00 | 0.00 | 0.00 | 88 | 1014.5 |
| 20260904135600 | 26 | 0 | 0.0 | 3.2 | 0.00 | 0.00 | 0.00 | 88 | 1014.3 |
| 20260904135055 | 26 | 0 | 0.0 | 4.8 | 0.00 | 0.00 | 0.00 | 88 | 1014.3 |
| 20260904134608 | 26 | 0 | 0.0 | 4.8 | 0.00 | 0.00 | 0.00 | 88 | 1014.4 |
| 20260904134056 | 26 | 0 | 0.0 | 6.4 | 0.00 | 0.00 | 0.00 | 88 | 1014.2 |
| 20260904133557 | 26 | 0 | 1.6 | 6.4 | 0.00 | 0.00 | 0.00 | 88 | 1014.2 |
| 20260904133103 | 26 | 0 | 1.6 | 6.4 | 0.00 | 0.00 | 0.00 | 87 | 1014.1 |
| 20260904132556 | 26 | 77 | 1.6 | 4.8 | 0.00 | 0.00 | 0.00 | 87 | 1014.2 |
| 20260904132059 | 25 | 63 | 0.0 | 4.8 | 0.00 | 0.00 | 0.00 | 87 | 1014.2 |
| 20260904131605 | 25 | 227 | 1.6 | 6.4 | 0.00 | 0.00 | 0.00 | 87 | 1014.2 |
| 20260904131058 | 25 | 44 | 1.6 | 6.4 | 0.00 | 0.00 | 0.00 | 87 | 1014.1 |
| 20260904130556 | 25 | 90 | 1.6 | 6.4 | 0.00 | 0.00 | 0.00 | 87 | 1013.9 |
| 20260904130109 | 25 | 174 | 1.6 | 6.4 | 0.00 | 0.00 | 0.00 | 88 | 1013.8 |
| 20260904125556 | 25 | 0 | 1.6 | 6.4 | 0.00 | 0.00 | 0.00 | 88 | 1013.6 |
| 20260904125059 | 25 | 204 | 0.0 | 3.2 | 0.00 | 0.00 | 0.00 | 88 | 1013.5 |
| 20260904124614 | 25 | 0 | 0.0 | 3.2 | 0.00 | 0.00 | 0.00 | 88 | 1013.5 |
| 20260904124059 | 25 | 0 | 0.0 | 4.8 | 0.00 | 0.00 | 0.00 | 88 | 1013.7 |
| 20260904123557 | 25 | 214 | 0.0 | 4.8 | 0.00 | 0.00 | 0.00 | 88 | 1013.7 |
| 20260904123106 | 25 | 0 | 0.0 | 3.2 | 0.00 | 0.00 | 0.00 | 87 | 1013.3 |
| 20260904122557 | 25 | 116 | 0.0 | 3.2 | 0.00 | 0.00 | 0.00 | 87 | 1013.2 |
| 20260904122058 | 25 | 0 | 0.0 | 3.2 | 0.00 | 0.00 | 0.00 | 87 | 1013.1 |
| 20260904121607 | 25 | 78 | 0.0 | 3.2 | 0.00 | 0.00 | 0.00 | 87 | 1013.1 |
| 20260904121100 | 25 | 0 | 0.0 | 4.8 | 0.00 | 0.00 | 0.00 | 87 | 1013.1 |
| 20260904120556 | 25 | 0 | 0.0 | 4.8 | 0.00 | 0.00 | 0.00 | 87 | 1013.0 |
| 20260904120132 | 25 | 38 | 0.0 | 4.8 | 0.00 | 0.00 | 0.00 | 87 | 1012.9 |
| 20260904115557 | 25 | 0 | 0.0 | 3.2 | 0.00 | 0.00 | 0.00 | 87 | 1012.9 |
| 20260904115056 | 25 | 0 | 0.0 | 3.2 | 0.00 | 0.00 | 0.00 | 87 | 1013.0 |
| 20260904114608 | 25 | 0 | 0.0 | 3.2 | 0.00 | 0.00 | 0.00 | 87 | 1013.0 |
| 20260904114056 | 25 | 53 | 0.0 | 4.8 | 0.00 | 0.00 | 0.00 | 87 | 1012.9 |
| 20260904113555 | 25 | 0 | 0.0 | 4.8 | 0.00 | 0.00 | 0.00 | 87 | 1012.9 |
| 20260904113107 | 25 | 0 | 0.0 | 3.2 | 0.00 | 0.00 | 0.00 | 87 | 1012.9 |
| 20260904112600 | 25 | 59 | 0.0 | 3.2 | 0.00 | 0.00 | 0.00 | 87 | 1012.8 |
| 20260904112101 | 25 | 0 | 0.0 | 3.2 | 0.00 | 0.00 | 0.00 | 87 | 1012.8 |
| 20260904111612 | 25 | 112 | 0.0 | 4.8 | 0.00 | 0.00 | 0.00 | 87 | 1012.8 |
| 20260904111057 | 25 | 90 | 1.6 | 4.8 | 0.00 | 0.00 | 0.00 | 87 | 1012.9 |
| 20260904110600 | 25 | 191 | 0.0 | 4.8 | 0.00 | 0.00 | 0.00 | 86 | 1012.8 |
| 20260904110116 | 25 | 0 | 0.0 | 6.4 | 0.00 | 0.00 | 0.00 | 86 | 1012.7 |
| 20260904105558 | 26 | 215 | 0.0 | 6.4 | 0.00 | 0.00 | 0.00 | 85 | 1012.5 |
| 20260904105058 | 26 | 56 | 1.6 | 6.4 | 0.00 | 0.00 | 0.00 | 85 | 1012.7 |
| 20260904104605 | 26 | 181 | 1.6 | 9.7 | 0.00 | 0.00 | 0.00 | 84 | 1012.5 |
| 20260904104058 | 26 | 173 | 0.0 | 11.3 | 0.00 | 0.00 | 0.00 | 84 | 1012.5 |
| 20260904103559 | 26 | 0 | 3.2 | 11.3 | 0.00 | 0.00 | 0.00 | 85 | 1012.6 |
| 20260904103107 | 25 | 79 | 1.6 | 4.8 | 0.00 | 0.00 | 0.00 | 85 | 1012.7 |
| 20260904102554 | 25 | 39 | 1.6 | 4.8 | 0.00 | 0.00 | 0.00 | 85 | 1012.7 |
| 20260904102053 | 25 | 0 | 1.6 | 6.4 | 0.00 | 0.00 | 0.00 | 85 | 1012.5 |
| 20260904101603 | 25 | 0 | 1.6 | 6.4 | 0.00 | 0.00 | 0.00 | 85 | 1012.4 |
| 20260904101054 | 25 | 0 | 0.0 | 6.4 | 0.00 | 0.00 | 0.00 | 86 | 1012.5 |
| 20260904100554 | 25 | 0 | 0.0 | 6.4 | 0.00 | 0.00 | 0.00 | 86 | 1012.6 |
| 20260904100107 | 25 | 0 | 0.0 | 4.8 | 0.00 | 0.00 | 0.00 | 86 | 1012.4 |
| 20260904095555 | 25 | 0 | 0.0 | 4.8 | 0.00 | 0.00 | 0.00 | 86 | 1012.6 |
| 20260904095055 | 25 | 0 | 1.6 | 4.8 | 0.00 | 0.00 | 0.00 | 85 | 1012.5 |
| 20260904094615 | 26 | 5 | 0.0 | 6.4 | 0.00 | 0.00 | 0.00 | 85 | 1012.3 |
| 20260904094055 | 26 | 0 | 0.0 | 6.4 | 0.00 | 0.00 | 0.00 | 85 | 1012.3 |
| 20260904093554 | 26 | 76 | 1.6 | 6.4 | 0.00 | 0.00 | 0.00 | 85 | 1012.4 |
| 20260904093104 | 26 | 119 | 1.6 | 11.3 | 0.00 | 0.00 | 0.00 | 85 | 1012.4 |
| 20260904092558 | 26 | 0 | 1.6 | 11.3 | 0.00 | 0.00 | 0.00 | 84 | 1012.3 |
| 20260904092054 | 26 | 39 | 0.0 | 6.4 | 0.00 | 0.00 | 0.00 | 84 | 1012.4 |
| 20260904091606 | 26 | 80 | 1.6 | 6.4 | 0.00 | 0.00 | 0.00 | 84 | 1012.5 |
| 20260904091055 | 26 | 89 | 0.0 | 6.4 | 0.00 | 0.00 | 0.00 | 84 | 1012.6 |
| 20260904090554 | 26 | 74 | 3.2 | 8.0 | 0.00 | 0.00 | 0.00 | 84 | 1012.5 |
| 20260904090107 | 26 | 64 | 3.2 | 9.7 | 0.00 | 0.00 | 0.00 | 84 | 1012.5 |
| 20260904085557 | 26 | 63 | 1.6 | 9.7 | 0.00 | 0.00 | 0.00 | 84 | 1012.5 |
| 20260904085054 | 26 | 240 | 3.2 | 8.0 | 0.00 | 0.00 | 0.00 | 84 | 1012.5 |
| 20260904084604 | 26 | 58 | 3.2 | 8.0 | 0.00 | 0.00 | 0.00 | 84 | 1012.3 |
| 20260904084055 | 26 | 53 | 1.6 | 6.4 | 0.00 | 0.00 | 0.00 | 84 | 1012.4 |
| 20260904083558 | 26 | 140 | 1.6 | 8.0 | 0.00 | 0.00 | 0.00 | 84 | 1012.4 |
| 20260904083108 | 26 | 46 | 1.6 | 8.0 | 0.00 | 0.00 | 0.00 | 84 | 1012.4 |
| 20260904082558 | 26 | 31 | 1.6 | 11.3 | 0.00 | 0.00 | 0.00 | 84 | 1012.3 |
| 20260904082057 | 26 | 129 | 3.2 | 11.3 | 0.00 | 0.00 | 0.00 | 84 | 1012.4 |
| 20260904081642 | 26 | 55 | 1.6 | 6.4 | 0.00 | 0.00 | 0.00 | 84 | 1012.3 |
| 20260904081057 | 26 | 54 | 3.2 | 9.7 | 0.00 | 0.00 | 0.00 | 85 | 1012.3 |
| 20260904080554 | 26 | 76 | 3.2 | 9.7 | 0.00 | 0.00 | 0.00 | 85 | 1012.3 |
| 20260904080105 | 26 | 243 | 1.6 | 11.3 | 0.00 | 0.00 | 0.00 | 85 | 1012.4 |
| 20260904075554 | 26 | 140 | 3.2 | 11.3 | 0.00 | 0.00 | 0.00 | 85 | 1012.2 |
| 20260904075055 | 26 | 233 | 1.6 | 6.4 | 0.00 | 0.00 | 0.00 | 85 | 1012.4 |
| 20260904074619 | 26 | 50 | 0.0 | 8.0 | 0.00 | 0.00 | 0.00 | 85 | 1012.3 |
| 20260904074054 | 26 | 40 | 1.6 | 8.0 | 0.00 | 0.00 | 0.00 | 85 | 1012.4 |
| 20260904073554 | 26 | 49 | 1.6 | 8.0 | 0.00 | 0.00 | 0.00 | 85 | 1012.4 |
| 20260904073112 | 26 | 65 | 1.6 | 4.8 | 0.00 | 0.00 | 0.00 | 85 | 1012.6 |
| 20260904072557 | 26 | 51 | 0.0 | 6.4 | 0.00 | 0.00 | 0.00 | 85 | 1012.5 |
| 20260904072056 | 26 | 59 | 1.6 | 6.4 | 0.00 | 0.00 | 0.00 | 84 | 1012.7 |
| 20260904071608 | 26 | 0 | 1.6 | 6.4 | 0.00 | 0.00 | 0.00 | 84 | 1012.9 |
| 20260904071054 | 26 | 121 | 1.6 | 6.4 | 0.00 | 0.00 | 0.00 | 84 | 1012.8 |
| 20260904070555 | 26 | 102 | 1.6 | 6.4 | 0.00 | 0.00 | 0.00 | 84 | 1012.9 |
| 20260904070124 | 26 | 126 | 1.6 | 6.4 | 0.00 | 0.00 | 0.00 | 84 | 1012.9 |
| 20260904065554 | 26 | 30 | 1.6 | 4.8 | 0.00 | 0.00 | 0.00 | 84 | 1012.9 |
| 20260904065054 | 26 | 78 | 1.6 | 6.4 | 0.00 | 0.00 | 0.00 | 84 | 1012.9 |
| 20260904064606 | 26 | 163 | 1.6 | 6.4 | 0.00 | 0.00 | 0.00 | 84 | 1013.0 |
| 20260904064054 | 26 | 0 | 1.6 | 6.4 | 0.00 | 0.00 | 0.00 | 84 | 1012.8 |
| 20260904063554 | 26 | 79 | 1.6 | 6.4 | 0.00 | 0.00 | 0.00 | 84 | 1012.6 |
| 20260904063103 | 26 | 171 | 1.6 | 6.4 | 0.00 | 0.00 | 0.00 | 84 | 1012.8 |
| 20260904062554 | 26 | 57 | 1.6 | 6.4 | 0.00 | 0.00 | 0.00 | 84 | 1012.9 |
| 20260904062054 | 26 | 147 | 1.6 | 4.8 | 0.00 | 0.00 | 0.00 | 84 | 1013.0 |
| 20260904061608 | 26 | 57 | 0.0 | 8.0 | 0.00 | 0.00 | 0.00 | 84 | 1012.9 |